Stations météo

Publicité
Montauban, France (7540): Température de l'air & dewpoint: 13.09.2018 17:00:00 - 19.09.2018 17:00:00 (CEST)Montauban, France (7540): Température de l'air 5cm: 13.09.2018 17:00:00 - 19.09.2018 17:00:00 (CEST)Montauban, France (7540): Température de l'air -20cm & Température de l'air -100cm: 13.09.2018 17:00:00 - 19.09.2018 17:00:00 (CEST)Montauban, France (7540): Vitesse du vent & gusts: 13.09.2018 17:00:00 - 19.09.2018 17:00:00 (CEST)Montauban, France (7540): Direction du vent: 13.09.2018 17:00:00 - 19.09.2018 17:00:00 (CEST)Montauban, France (7540): reduced air pressure: 13.09.2018 17:00:00 - 19.09.2018 17:00:00 (CEST)Montauban, France (7540): visibility: 13.09.2018 17:00:00 - 19.09.2018 17:00:00 (CEST)Montauban, France (7540): Ensoleillement: 13.09.2018 17:00:00 - 19.09.2018 17:00:00 (CEST)Montauban, France (7540): Quantités de précipitations: 13.09.2018 17:00:00 - 19.09.2018 17:00:00 (CEST)
Date & Time tt [°C] td [°C] tt 5cm [°C] tt -20cm [°C] tt -100cm [°C] ff [km/h] ff [knt] fx [km/h] fx [knt] dd ppp [hPa] vv [km] sd [min] rr [mm]
19.09.2018 17:00:00 30,5 12,9 36,0 24,0 22,2 6 3 13 7 NNW 1019,2 20 60 0,0
19.09.2018 16:00:00 30,2 15,5 35,3 23,7 22,2 4 2 15 8 WNW 1019,6 20 60 0,0
19.09.2018 15:00:00 28,2 17,4 33,6 23,6 22,3 6 3 15 8 W 1020,3 20 60 0,0
19.09.2018 14:00:00 26,1 18,0 31,6 23,4 22,2 6 3 16 9 WNW 1020,9 20 60 0,0
19.09.2018 13:00:00 24,1 17,8 24,8 23,4 22,2 7 4 16 9 S 1021,7 20 39 0,0
19.09.2018 12:00:00 20,8 17,8 23,4 23,5 22,2 6 4 16 9 S 1022,4 20 0 0,0
19.09.2018 11:00:00 20,6 17,6 21,7 23,5 22,2 7 4 13 7 S 1022,2 20 0 0,0
19.09.2018 10:00:00 19,3 16,7 19,7 23,6 22,2 2 1 7 4 SSW 1021,9 17 0 0,0
19.09.2018 09:00:00 18,4 15,8 17,5 23,8 22,2 2 1 6 3 S 1021,4 20 0 0,0
19.09.2018 08:00:00 17,3 15,3 13,9 23,9 22,2 3 2 6 3 SW 1020,8 20 0 0,0
19.09.2018 07:00:00 15,5 13,9 13,9 24,0 22,2 4 2 11 6 SE 1019,9 20 0 0,0
19.09.2018 06:00:00 16,2 14,4 13,8 24,2 22,2 3 2 6 3 E 1020,0 20 0 0,0
19.09.2018 05:00:00 16,0 14,2 13,9 24,3 22,2 0 0 4 2 N 1019,8 20 0 0,0
19.09.2018 04:00:00 17,3 14,6 14,5 24,4 22,2 0 0 4 2 N 1019,5 20 0 0,0
19.09.2018 03:00:00 17,2 14,3 15,1 24,6 22,2 0 0 6 3 N 1019,5 20 0 0,0
19.09.2018 02:00:00 17,2 13,9 15,5 24,7 22,2 4 2 6 3 SE 1019,5 20 0 0,0
19.09.2018 01:00:00 18,4 14,5 15,9 24,8 22,2 2 1 7 4 E 1019,2 20 0 0,0
19.09.2018 00:00:00 19,9 14,7 17,0 24,8 22,2 0 0 6 3 N 1018,7 20 0 0,0
18.09.2018 23:00:00 20,9 14,5 18,0 24,9 22,2 0 0 7 4 N 1018,8 20 0 0,0
18.09.2018 22:00:00 23,1 14,6 20,0 24,8 22,2 4 2 13 7 SSE 1018,0 20 0 0,0
18.09.2018 21:00:00 25,0 14,2 23,3 24,7 22,2 7 4 19 11 S 1017,0 20 0 0,0
18.09.2018 20:00:00 26,5 14,3 25,5 24,6 22,2 13 7 25 13 S 1016,3 20 32 0,0
18.09.2018 19:00:00 28,8 14,6 31,4 24,4 22,2 16 9 27 15 S 1015,4 20 60 0,0
18.09.2018 18:00:00 30,1 13,8 31,7 24,2 22,2 11 6 22 12 SSE 1015,0 20 55 0,0
18.09.2018 17:00:00 29,9 13,6 30,9 23,9 22,2 14 8 22 12 SE 1015,3 20 25 0,0
18.09.2018 16:00:00 30,7 13,9 34,9 23,7 22,2 6 3 26 14 SSE 1015,4 20 43 0,0
18.09.2018 15:00:00 29,6 15,0 32,7 23,4 22,2 14 8 30 16 SSE 1015,8 15 50 0,0
18.09.2018 14:00:00 29,0 15,5 34,0 23,3 22,2 10 6 24 13 SE 1016,2 20 54 0,0
18.09.2018 13:00:00 27,3 15,6 32,2 23,3 22,2 10 5 25 13 S 1016,7 20 60 0,0
18.09.2018 12:00:00 26,4 15,7 29,4 23,3 22,2 11 6 25 14 SSE 1017,4 20 58 0,0
18.09.2018 11:00:00 24,9 16,3 27,2 23,4 22,2 8 4 15 8 ESE 1017,6 11 60 0,0
18.09.2018 10:00:00 21,4 16,4 20,2 23,5 22,2 4 2 11 6 E 1017,6 17 60 0,0
18.09.2018 09:00:00 17,5 15,1 16,3 23,6 22,2 6 3 11 6 E 1017,3 20 60 0,0
18.09.2018 08:00:00 16,2 14,6 13,6 23,8 22,2 6 4 9 5 ENE 1017,0 20 2 0,0
18.09.2018 07:00:00 15,6 14,1 13,5 23,9 22,2 4 2 9 5 ESE 1016,9 18 0 0,0
18.09.2018 06:00:00 15,4 13,8 13,6 24,1 22,2 3 1 9 5 ESE 1016,7 20 0 0,0
18.09.2018 05:00:00 16,0 14,4 13,5 24,2 22,2 0 0 4 2 N 1016,5 20 0 0,0
18.09.2018 04:00:00 16,2 13,9 14,1 24,4 22,2 3 2 5 3 SE 1016,3 20 0 0,0
18.09.2018 03:00:00 16,9 14,9 14,4 24,5 22,2 5 3 7 4 S 1016,4 20 0 0,0
18.09.2018 02:00:00 18,1 15,4 15,1 24,6 22,2 0 0 7 4 N 1016,4 20 0 0,0
18.09.2018 01:00:00 18,2 14,7 15,4 24,7 22,2 5 3 8 4 ESE 1016,2 20 0 0,0
18.09.2018 00:00:00 19,9 15,5 16,7 24,7 22,2 2 1 7 4 SSE 1016,2 20 0 0,0
17.09.2018 23:00:00 21,4 15,7 17,9 24,8 22,2 5 3 13 7 SE 1016,0 20 0 0,0
17.09.2018 22:00:00 22,2 16,2 20,4 24,7 22,2 11 6 16 9 SSE 1015,7 20 0 0,0
17.09.2018 21:00:00 24,4 15,9 22,7 24,6 22,2 9 5 20 11 S 1015,0 20 0 0,0
17.09.2018 20:00:00 26,7 15,7 25,9 24,5 22,2 14 8 28 15 S 1014,3 20 40 0,0
17.09.2018 19:00:00 29,8 14,4 31,7 24,2 22,2 19 11 30 16 SSE 1014,0 20 60 0,0
17.09.2018 18:00:00 31,1 14,3 35,4 24,0 22,2 18 10 32 17 S 1014,0 20 55 0,0
17.09.2018 17:00:00 31,8 14,0 35,5 23,8 22,2 16 9 33 18 SSE 1014,4 20 58 0,0
17.09.2018 16:00:00 31,7 13,5 36,4 23,5 22,2 19 10 32 17 SSE 1015,2 20 55 0,0
17.09.2018 15:00:00 31,3 14,4 35,1 23,3 22,2 19 10 31 17 SSE 1016,0 20 57 0,0
17.09.2018 14:00:00 29,8 14,4 32,0 23,2 22,2 15 8 26 14 S 1016,9 20 54 0,0
17.09.2018 13:00:00 27,8 15,1 29,3 23,1 22,2 16 9 29 16 SSE 1017,8 20 43 0,0
17.09.2018 12:00:00 26,2 15,0 28,7 23,1 22,2 15 8 26 14 SSE 1018,6 20 60 0,0
17.09.2018 11:00:00 23,9 15,1 24,2 23,2 22,2 11 6 17 9 SE 1019,1 20 56 0,0
17.09.2018 10:00:00 20,4 15,0 19,7 23,3 22,2 5 3 8 4 E 1019,6 20 25 0,0
17.09.2018 09:00:00 17,1 13,8 15,8 23,4 22,2 3 2 9 5 E 1019,9 20 20 0,0
17.09.2018 08:00:00 15,9 12,8 14,8 23,6 22,2 3 1 9 5 E 1019,9 20 0 0,0
17.09.2018 07:00:00 16,2 13,1 14,9 23,7 22,2 5 3 8 4 ENE 1019,6 20 0 0,0
17.09.2018 06:00:00 16,5 13,6 14,3 23,8 22,2 4 2 7 4 SE 1019,6 20 0 0,0
17.09.2018 05:00:00 16,7 13,0 14,6 24,0 22,2 3 2 4 2 ESE 1019,7 20 0 0,0
17.09.2018 04:00:00 17,0 12,9 15,2 24,1 22,2 2 1 5 3 ESE 1019,9 20 0 0,0
17.09.2018 03:00:00 17,2 12,7 15,5 24,2 22,2 0 0 7 4 N 1020,2 20 0 0,0
17.09.2018 02:00:00 17,8 12,9 14,8 24,3 22,2 0 0 7 4 N 1020,0 20 0 0,0
17.09.2018 01:00:00 18,7 13,1 15,7 24,4 22,2 6 3 10 5 S 1020,0 20 0 0,0
17.09.2018 00:00:00 19,3 12,8 15,9 24,5 22,2 4 2 10 5 S 1020,3 20 0 0,0
16.09.2018 23:00:00 19,8 12,3 16,3 24,5 22,2 0 0 5 3 N 1020,2 20 0 0,0
16.09.2018 22:00:00 21,1 12,8 17,6 24,4 22,2 0 0 5 3 N 1020,2 20 0 0,0
16.09.2018 21:00:00 23,1 11,8 19,5 24,4 22,2 0 0 4 2 N 1019,3 20 0 0,0
16.09.2018 20:00:00 27,3 9,6 25,3 24,2 22,2 2 1 14 8 NNE 1018,8 20 1 0,0
16.09.2018 19:00:00 28,9 10,1 29,7 24,0 22,3 8 5 18 10 NNW 1018,5 20 33 0,0
16.09.2018 18:00:00 29,9 10,4 35,5 23,6 22,2 11 6 21 12 NNW 1018,3 20 60 0,0
16.09.2018 17:00:00 31,3 9,5 36,7 23,3 22,3 5 3 20 11 WSW 1018,4 20 60 0,0
16.09.2018 16:00:00 30,2 9,7 36,1 23,0 22,3 6 4 17 9 SW 1018,6 20 60 0,0
16.09.2018 15:00:00 29,2 8,8 35,3 22,7 22,3 4 2 16 9 NNE 1019,1 20 60 0,0
16.09.2018 14:00:00 28,2 11,3 35,3 22,6 22,2 5 3 19 10 WSW 1019,5 20 60 0,0
16.09.2018 13:00:00 27,2 11,6 33,1 22,5 22,3 7 4 21 11 SSE 1019,9 18 60 0,0
16.09.2018 12:00:00 25,6 12,8 31,0 22,5 22,3 2 1 8 4 E 1020,4 20 60 0,0
16.09.2018 11:00:00 23,1 13,6 26,4 22,6 22,3 4 2 9 5 SSW 1020,8 20 60 0,0
16.09.2018 10:00:00 19,4 13,1 19,8 22,7 22,2 4 2 6 3 ENE 1020,8 20 60 0,0
16.09.2018 09:00:00 15,4 13,2 11,9 22,9 22,3 0 0 4 2 N 1020,9 20 18 0,0
16.09.2018 08:00:00 13,7 11,7 12,0 23,0 22,3 0 0 5 3 N 1020,4 20 0 0,0
16.09.2018 07:00:00 14,0 12,0 13,0 23,2 22,3 4 2 8 4 E 1020,0 20 0 0,0
16.09.2018 06:00:00 13,7 11,7 12,4 23,3 22,3 4 2 7 4 E 1019,5 20 0 0,0
16.09.2018 05:00:00 13,8 12,0 11,8 23,4 22,3 2 1 4 2 E 1019,6 20 0 0,0
16.09.2018 04:00:00 14,7 11,8 11,7 23,6 22,3 0 0 4 2 N 1019,8 20 0 0,0
16.09.2018 03:00:00 14,2 12,1 11,3 23,7 22,3 3 1 6 3 E 1020,2 20 0 0,0
16.09.2018 02:00:00 15,9 12,3 12,6 23,8 22,3 3 1 5 3 ENE 1020,7 20 0 0,0
16.09.2018 01:00:00 16,6 12,7 13,2 24,0 22,3 0 0 4 2 N 1020,8 20 0 0,0
16.09.2018 00:00:00 17,2 12,7 14,7 24,0 22,3 3 2 4 2 S 1020,9 20 0 0,0
15.09.2018 23:00:00 17,9 13,0 15,1 24,1 22,3 3 1 4 2 SSW 1020,7 20 0 0,0
15.09.2018 22:00:00 19,9 12,9 16,5 24,0 22,3 0 0 5 3 N 1020,6 20 0 0,0
15.09.2018 21:00:00 22,5 12,7 18,5 23,9 22,3 4 2 9 5 WSW 1020,3 20 0 0,0
15.09.2018 20:00:00 24,9 11,8 23,0 23,8 22,4 4 2 10 5 WNW 1020,0 20 43 0,0
15.09.2018 19:00:00 26,2 11,5 27,3 23,5 22,3 6 4 13 7 W 1019,9 20 41 0,0
15.09.2018 18:00:00 27,5 10,7 32,4 23,3 22,3 8 4 17 9 NW 1019,7 20 60 0,0
15.09.2018 17:00:00 27,0 9,8 32,0 23,0 22,4 7 4 16 8 N 1020,1 20 58 0,0
15.09.2018 16:00:00 27,1 11,2 29,9 22,7 22,3 5 3 18 10 SW 1020,5 20 29 0,0
15.09.2018 15:00:00 26,1 11,4 30,8 22,5 22,3 8 4 16 8 WSW 1020,9 18 42 0,0
15.09.2018 14:00:00 25,4 11,6 32,4 22,4 22,4 7 4 16 9 SW 1021,4 20 60 0,0
15.09.2018 13:00:00 24,2 13,1 28,9 22,2 22,3 5 3 16 8 W 1022,1 20 60 0,0
15.09.2018 12:00:00 22,5 13,8 26,8 22,3 22,4 6 3 14 8 W 1022,9 20 60 0,0
15.09.2018 11:00:00 20,3 13,0 24,2 22,4 22,3 4 2 9 5 WNW 1023,2 20 60 0,0
15.09.2018 10:00:00 17,8 13,3 18,2 22,5 22,3 2 1 5 3 WNW 1023,5 20 60 0,0
15.09.2018 09:00:00 14,2 12,6 12,0 22,7 22,4 3 1 7 4 E 1023,0 20 41 0,0
15.09.2018 08:00:00 12,2 11,1 9,5 22,8 22,4 3 1 7 4 E 1022,8 20 3 0,0
15.09.2018 07:00:00 12,2 10,9 9,6 23,0 22,3 0 0 4 2 N 1022,6 20 0 0,0
15.09.2018 06:00:00 13,5 11,5 11,4 23,1 22,4 0 0 4 2 N 1022,3 20 0 0,0
15.09.2018 05:00:00 13,7 12,1 10,8 23,3 22,4 0 0 4 2 N 1022,3 20 0 0,0
15.09.2018 04:00:00 13,5 11,7 10,9 23,4 22,4 3 2 5 3 NW 1022,2 20 0 0,0
15.09.2018 03:00:00 13,5 11,2 11,4 23,6 22,4 0 0 4 2 N 1022,4 20 0 0,0
15.09.2018 02:00:00 14,3 11,8 11,8 23,7 22,4 0 0 5 3 N 1022,4 20 0 0,0
15.09.2018 01:00:00 15,1 12,0 12,3 23,9 22,4 0 0 4 2 N 1022,3 20 0 0,0
15.09.2018 00:00:00 16,6 12,5 13,1 23,9 22,4 0 0 4 2 N 1022,0 20 0 0,0
14.09.2018 23:00:00 17,3 12,4 13,8 24,0 22,4 3 1 6 3 WNW 1022,0 20 0 0,0
14.09.2018 22:00:00 19,2 12,9 15,4 24,0 22,4 4 2 6 3 WNW 1021,7 20 0 0,0
14.09.2018 21:00:00 21,0 12,9 17,3 24,0 22,4 4 2 11 6 WNW 1021,1 20 0 0,0
14.09.2018 20:00:00 23,5 12,5 22,5 23,9 22,4 8 4 22 12 NW 1020,4 20 43 0,0
14.09.2018 19:00:00 25,2 11,4 24,9 23,7 22,4 15 8 25 13 NW 1019,9 20 36 0,0
14.09.2018 18:00:00 24,9 13,4 26,2 23,5 22,4 16 9 25 13 NW 1020,0 20 38 0,0
14.09.2018 17:00:00 24,9 13,8 27,3 23,3 22,4 13 7 20 11 W 1020,0 20 25 0,0
14.09.2018 16:00:00 23,9 14,6 28,5 23,2 22,4 7 4 17 9 WNW 1020,4 20 18 0,0
14.09.2018 15:00:00 23,6 15,6 27,2 23,2 22,4 7 4 21 11 WNW 1020,8 20 47 0,0
14.09.2018 14:00:00 21,9 16,4 21,2 23,1 22,4 9 5 21 12 W 1021,6 19 28 0,0
14.09.2018 13:00:00 18,6 16,0 19,7 23,2 22,4 8 4 14 8 WNW 1022,1 14 0 0,0
14.09.2018 12:00:00 17,7 15,9 18,7 23,2 22,4 8 5 13 7 WNW 1022,2 10 0 0,0
14.09.2018 11:00:00 17,2 15,9 18,1 23,3 22,4 9 5 15 8 W 1021,9 7 0 0,0
14.09.2018 10:00:00 16,8 15,5 17,1 23,4 22,4 7 4 12 7 WNW 1021,6 9 0 0,0
14.09.2018 09:00:00 16,5 15,4 16,5 23,5 22,4 8 4 18 10 NW 1021,2 11 0 0,0
14.09.2018 08:00:00 16,5 15,2 15,7 23,6 22,4 9 5 14 8 WNW 1020,9 20 0 0,0
14.09.2018 07:00:00 16,8 15,1 16,1 23,7 22,4 7 4 16 9 WNW 1020,6 20 0 0,0
14.09.2018 06:00:00 17,5 15,3 17,4 23,8 22,4 11 6 18 10 W 1020,5 20 0 0,0
14.09.2018 05:00:00 18,0 15,6 17,8 23,9 22,4 10 6 18 10 W 1020,7 20 0 0,0
14.09.2018 04:00:00 18,7 15,9 18,2 24,0 22,4 7 4 14 8 WNW 1020,8 20 0 0,0
14.09.2018 03:00:00 19,4 15,9 18,8 24,1 22,4 7 4 14 8 W 1021,0 20 0 0,0
14.09.2018 02:00:00 19,9 15,9 19,1 24,2 22,4 9 5 15 8 WNW 1021,2 20 0 0,0
14.09.2018 01:00:00 19,8 15,9 18,9 24,2 22,3 4 2 15 8 W 1021,3 20 0 0,0
14.09.2018 00:00:00 20,3 15,7 19,7 24,3 22,3 7 4 13 7 W 1021,1 20 0 0,0
13.09.2018 23:00:00 20,6 15,4 19,0 24,3 22,3 7 4 14 8 WNW 1021,1 20 0 0,0
13.09.2018 22:00:00 20,9 15,2 19,6 24,4 22,4 7 4 14 8 W 1021,0 20 0 0,0
13.09.2018 21:00:00 21,6 15,2 21,4 24,4 22,4 8 4 15 8 W 1020,5 20 0 0,0
13.09.2018 20:00:00 21,9 15,3 21,8 24,4 22,3 8 5 15 8 W 1020,3 20 0 0,0
13.09.2018 19:00:00 22,5 15,3 22,7 24,3 22,3 10 5 24 13 WNW 1020,3 20 0 0,0
13.09.2018 18:00:00 23,0 15,3 24,3 24,3 22,3 15 8 23 12 WNW 1020,3 20 0 0,0
13.09.2018 17:00:00 23,2 15,5 24,7 24,2 22,3 12 6 22 12 NW 1020,6 20 0 0,0

tt = Température de l'air
td = dewpoint
tt 5cm = Température de l'air 5cm
tt -20cm = Température de l'air -20cm
tt -100cm = Température de l'air -100cm
ff = Vitesse du vent
fx = gusts
dd = Direction du vent
ppp = reduced air pressure
vv = visibility
sd = Ensoleillement
rr = Quantités de précipitations

stations d'obs. à proximité